Home > Weather > Wright > Past weeks

Flag for U.S.A. Weather for the Past 2 Weeks in Wright, Florida, U.S.A.

Now
39 °F

Clear.


Feels Like: 35 °F
Forecast: 35 / 59 °F
Wind: 5 mph from North

Location: Hurlburt Field

Current Time: Feb 7, 2016 at 12:02:44 AM

Latest Report: Feb 6, 2016 at 10:58 PM


Visibility: 10 mi

Pressure: 30.22 "Hg

Humidity: 56%

Dew point: 24 °F

Location of WrightLocation

Historic Weather in Wright — Graph

°F

Wright Temperature Yesterday

Maximum temperature yesterday: 56 °F (at 12:58 PM)
Minimum temperature yesterday: 33 °F (at 5:58 AM)
Average temperature yesterday: 46 °F

High & Low Weather Summary for the Past Weeks

 TemperatureHumidityPressure
High72 °F (Feb 1, 12:58 PM)95% (Jan 31, 11:58 PM)30.45 "Hg (Jan 31, 11:58 PM)
Low28 °F (Jan 24, 5:58 AM)16% (Feb 5, 12:58 PM)29.86 "Hg (Feb 3, 2:58 AM)
Average52 °F68%30.10 "Hg
* Reported Jan 22 10:46 PM — Feb 6 10:58 PM, Wright, Weather by CustomWeather, © 2016

Note: Actual official high and low records may vary slightly from our data, if they occured in-between our weather recording intervals... More about our weather records

Advertising

Wright Weather History for the Previous 24 Hours

 ConditionsComfort  
Time TempWeatherWind HumidityBarometerVisibility
10:58 PM
Sat, Feb 6
39 °FClear.5 mph56%30.22 "Hg10 mi
9:58 PM42 °FClear.8 mph45%30.22 "Hg10 mi
8:58 PM47 °FClear.6 mph34%30.24 "Hg10 mi
7:58 PM44 °FPassing clouds.8 mph48%30.22 "Hg10 mi
6:58 PM49 °FPassing clouds.9 mph32%30.22 "Hg10 mi
5:58 PM49 °FPassing clouds.6 mph41%30.21 "Hg10 mi
4:58 PM55 °FPassing clouds.6 mph33%30.19 "Hg10 mi
3:58 PM54 °FHaze.7 mph29%30.19 "Hg3 mi
2:58 PM56 °FSunny.8 mph28%30.19 "Hg4 mi
1:58 PM56 °FSunny.7 mph27%30.21 "Hg3 mi
12:58 PM56 °FSunny.7 mph27%30.22 "Hg9 mi
11:58 AM56 °FSunny.1 mph19%30.27 "Hg10 mi
10:59 AM54 °FSunny.2 mph21%30.32 "Hg10 mi
10:58 AM54 °FPassing clouds.5 mph22%30.32 "Hg10 mi
9:58 AM53 °FSunny.5 mph25%30.35 "Hg10 mi
8:58 AM47 °FSunny.6 mph37%30.36 "Hg10 mi
7:58 AM39 °FSunny.8 mph50%30.34 "Hg10 mi
6:58 AM33 °FSunny.8 mph69%30.34 "Hg10 mi
5:58 AM33 °FSunny.8 mph69%30.32 "Hg10 mi
4:58 AM34 °FClear.7 mph64%30.31 "Hg10 mi
3:58 AM35 °FClear.7 mph65%30.32 "Hg10 mi
2:58 AM37 °FClear.7 mph54%30.32 "Hg10 mi
1:58 AM37 °FClear.7 mph58%30.34 "Hg10 mi
12:58 AM38 °FClear.7 mph58%30.34 "Hg10 mi
Weather by CustomWeather, © 2016

See weather overviewHow to use our weather pages